FENGYUN 1C DEB, 40696

Orbit data source: Space-Track

FENGYUN 1C DEB, 40696 is space debris in SSO originally from a launch on Mon, 10 May 1999 UTC launched from the Taiyaun Space Center, China (TSC). Fengyun 1C debris stems from the Chinese weather satellite Fengyun-1C, which was intentionally destroyed by a Chinese anti-satellite missile in 2007. This event dramatically increased the amount of space debris, with thousands of trackable fragments posing hazards to satellites and human spaceflight. The Fengyun 1C debris cloud has become a focal point in discussions about space sustainability and the need for international regulations to prevent the creation of new debris.

Loading next visibility...
Identifier
40696, 1999-025EXC
Orbit
SSO
Country
Flag of CNCN / PRC
Related business
Manufacturer
Unknown
Mission
Spacecraft
Bus & Motor
Unknown
Mass
Unknown
Launch date (UTC)
1999-05-10 (26 years ago)
Launch vehicle
Unknown
Launch site
Taiyaun Space Center, China (TSC)
Object type
Payload
Rocket body
Debris
Shape & HBR
Unknown
Radar Cross Section
Small (<0.1 m²)

Expand to show TLE details & history
Last TLE update: 1 day ago

TLE from 1 day ago
0 FENGYUN 1C DEB
1 40696U 99025EXC 25259.74594244  .00000320  00000-0  25524-3 0  9998
2 40696  98.9502 248.8173 0079020 235.9393 123.4251 13.96676271544655
Epoch: 2025-09-16T17:54Z
TLE epoch observation values (Epoch: 2025-09-16T17:54:09.426Z)
Latitude
-0°
Longitude
-15.6538°
Altitude
940.226 km
Speed
7.365 km/s
True Right ascension
16h 35m 16s
True Declination
0° 00' 00"
Sunlit
Object was in daylight at epoch
Visualization orbit readout
Latitude
Unknown
Longitude
Unknown
Altitude
Unknown
Speed
Unknown
Apparent Right ascension
Unknown
Apparent Declination
Unknown
Sunlit
N/A
Visualization observer readout
Local Sidereal Time
17:43:39
Azimuth
Unknown
Elevation
Unknown
Doppler factor
Unknown
Orbital elements
Apogee altitude
960.06 km
Perigee altitude
844.997 km
Semi-major axis
7,280.666 km
Eccentricity
0.0079
Inclination
98.9502°
RAAN
248.8173°
Arg. of periapsis
235.9393°
True anomaly
124.17673°
Mean anomaly
123.4251°
Eccentric anomaly
123.80132°
Mean motion
3.49371 °/min
Orbital period
103.04 mins
BSTAR
0.00025524
Loading maneuver chart data...
Computing Atmospheric mass density...
Loading historical data...
Loading historical data...
Loading historical data...
Loading historical data...
Loading historical data...
Loading historical data...
Loading historical data...

Documentation

Showing up to 5 results
|